| time (UTC) | temp C | wind direction | speed KPH | gust KPH | rain 1hr cm | rain 24hr cm | rain mn cm | humidity % | barometer mb |
| 20260906095321 | 21 | 0 | 0.0 | 3.2 | 0.00 | 0.08 | 0.00 | 100 | 1011.9 |
| 20260906094822 | 21 | 178 | 0.0 | 3.2 | 0.00 | 0.08 | 0.00 | 100 | 1011.8 |
| 20260906094321 | 21 | 0 | 0.0 | 0.0 | 0.00 | 0.08 | 0.00 | 100 | 1012.0 |
| 20260906093821 | 21 | 0 | 0.0 | 0.0 | 0.00 | 0.08 | 0.00 | 100 | 1011.9 |
| 20260906093321 | 21 | 0 | 0.0 | 0.0 | 0.00 | 0.08 | 0.00 | 100 | 1011.9 |
| 20260906092807 | 21 | 0 | 0.0 | 0.0 | 0.00 | 0.08 | 0.00 | 100 | 1011.7 |
| 20260906092307 | 21 | 0 | 0.0 | 0.0 | 0.00 | 0.08 | 0.00 | 100 | 1011.8 |
| 20260906092038 | 21 | 0 | 0.0 | 4.8 | 0.00 | 0.08 | 0.00 | 100 | 1011.7 |
| 20260906091539 | 21 | 0 | 1.6 | 4.8 | 0.00 | 0.08 | 0.00 | 100 | 1011.6 |
| 20260906090813 | 21 | 0 | 0.0 | 3.2 | 0.00 | 0.08 | 0.00 | 100 | 1011.6 |
| 20260906090807 | 21 | 335 | 0.0 | 3.2 | 0.00 | 0.08 | 0.00 | 100 | 1011.5 |
| 20260906085808 | 21 | 315 | 1.6 | 6.4 | 0.00 | 0.08 | 0.00 | 100 | 1011.6 |
| 20260906085308 | 21 | 329 | 3.2 | 6.4 | 0.00 | 0.08 | 0.00 | 100 | 1011.6 |
| 20260906084753 | 21 | 319 | 1.6 | 6.4 | 0.00 | 0.08 | 0.00 | 100 | 1011.6 |
| 20260906084253 | 21 | 0 | 1.6 | 4.8 | 0.00 | 0.08 | 0.00 | 100 | 1011.5 |
| 20260906083738 | 21 | 321 | 0.0 | 3.2 | 0.00 | 0.08 | 0.00 | 100 | 1011.5 |
| 20260906083509 | 21 | 320 | 0.0 | 3.2 | 0.00 | 0.08 | 0.00 | 100 | 1011.5 |
| 20260906082724 | 21 | 0 | 0.0 | 3.2 | 0.00 | 0.08 | 0.00 | 100 | 1011.5 |
| 20260906082223 | 21 | 0 | 1.6 | 3.2 | 0.00 | 0.08 | 0.00 | 100 | 1011.4 |
| 20260906081726 | 21 | 317 | 1.6 | 4.8 | 0.00 | 0.08 | 0.00 | 100 | 1011.3 |
| 20260906081225 | 21 | 320 | 0.0 | 4.8 | 0.00 | 0.08 | 0.00 | 100 | 1011.3 |
| 20260906080725 | 21 | 315 | 0.0 | 3.2 | 0.00 | 0.08 | 0.00 | 100 | 1011.2 |
| 20260906080225 | 21 | 0 | 0.0 | 3.2 | 0.00 | 0.08 | 0.00 | 100 | 1011.2 |
| 20260906075724 | 21 | 330 | 0.0 | 3.2 | 0.00 | 0.08 | 0.00 | 100 | 1011.2 |
| 20260906075224 | 20 | 0 | 0.0 | 3.2 | 0.00 | 0.08 | 0.00 | 100 | 1011.1 |
| 20260906074724 | 20 | 0 | 0.0 | 3.2 | 0.00 | 0.08 | 0.00 | 100 | 1011.1 |
| 20260906074224 | 20 | 0 | 0.0 | 1.6 | 0.00 | 0.08 | 0.00 | 100 | 1011.2 |
| 20260906073724 | 20 | 0 | 0.0 | 0.0 | 0.00 | 0.08 | 0.00 | 100 | 1011.3 |
| 20260906073453 | 20 | 0 | 0.0 | 0.0 | 0.00 | 0.08 | 0.00 | 100 | 1011.3 |
| 20260906072942 | 20 | 0 | 0.0 | 0.0 | 0.00 | 0.08 | 0.00 | 100 | 1011.4 |
| 20260906072209 | 20 | 0 | 0.0 | 0.0 | 0.00 | 0.08 | 0.00 | 100 | 1011.4 |
| 20260906071709 | 20 | 0 | 0.0 | 0.0 | 0.00 | 0.08 | 0.00 | 100 | 1011.4 |
| 20260906071440 | 20 | 0 | 0.0 | 0.0 | 0.00 | 0.08 | 0.00 | 100 | 1011.4 |
| 20260906070941 | 21 | 0 | 0.0 | 0.0 | 0.00 | 0.08 | 0.00 | 100 | 1011.5 |
| 20260906070210 | 21 | 0 | 0.0 | 0.0 | 0.00 | 0.08 | 0.00 | 100 | 1011.5 |
| 20260906065710 | 21 | 0 | 0.0 | 0.0 | 0.00 | 0.08 | 0.00 | 100 | 1011.6 |
| 20260906065210 | 21 | 0 | 0.0 | 0.0 | 0.00 | 0.08 | 0.00 | 100 | 1011.6 |
| 20260906064710 | 21 | 0 | 0.0 | 0.0 | 0.00 | 0.08 | 0.00 | 100 | 1011.6 |
| 20260906064210 | 21 | 0 | 0.0 | 0.0 | 0.00 | 0.08 | 0.00 | 100 | 1011.7 |
| 20260906063710 | 21 | 0 | 0.0 | 0.0 | 0.00 | 0.08 | 0.00 | 100 | 1011.8 |
| 20260906063210 | 21 | 0 | 0.0 | 0.0 | 0.00 | 0.08 | 0.00 | 100 | 1011.8 |
| 20260906062710 | 21 | 0 | 0.0 | 0.0 | 0.00 | 0.08 | 0.00 | 100 | 1011.8 |
| 20260906062156 | 21 | 0 | 0.0 | 0.0 | 0.00 | 0.08 | 0.00 | 100 | 1011.8 |
| 20260906061655 | 21 | 0 | 0.0 | 0.0 | 0.00 | 0.08 | 0.00 | 100 | 1011.8 |
| 20260906061156 | 21 | 0 | 0.0 | 0.0 | 0.00 | 0.08 | 0.00 | 100 | 1011.8 |
| 20260906060655 | 21 | 0 | 0.0 | 0.0 | 0.00 | 0.08 | 0.00 | 100 | 1011.9 |
| 20260906060156 | 21 | 0 | 0.0 | 0.0 | 0.00 | 0.08 | 0.00 | 100 | 1011.9 |
| 20260906055927 | 21 | 0 | 0.0 | 0.0 | 0.00 | 0.08 | 0.00 | 100 | 1012.0 |
| 20260906055805 | 21 | 0 | 0.0 | 0.0 | 0.00 | 0.08 | 0.00 | 100 | 1012.0 |
| 20260906054656 | 21 | 0 | 0.0 | 0.0 | 0.00 | 0.08 | 0.00 | 100 | 1012.0 |
| 20260906054156 | 21 | 0 | 0.0 | 0.0 | 0.00 | 0.08 | 0.00 | 100 | 1012.0 |
| 20260906053659 | 21 | 0 | 0.0 | 0.0 | 0.00 | 0.08 | 0.00 | 100 | 1011.9 |
| 20260906053157 | 21 | 0 | 0.0 | 0.0 | 0.00 | 0.08 | 0.00 | 100 | 1011.9 |
| 20260906052657 | 21 | 0 | 0.0 | 0.0 | 0.00 | 0.08 | 0.00 | 100 | 1012.0 |
| 20260906052142 | 21 | 0 | 0.0 | 0.0 | 0.00 | 0.08 | 0.00 | 100 | 1012.1 |
| 20260906051643 | 21 | 0 | 0.0 | 0.0 | 0.00 | 0.08 | 0.00 | 100 | 1012.1 |
| 20260906051141 | 21 | 0 | 0.0 | 0.0 | 0.00 | 0.08 | 0.00 | 100 | 1012.2 |
| 20260906050912 | 21 | 0 | 0.0 | 0.0 | 0.00 | 0.08 | 0.00 | 100 | 1012.2 |
| 20260906050142 | 21 | 0 | 0.0 | 0.0 | 0.00 | 0.08 | 0.00 | 100 | 1012.2 |
| 20260906045642 | 21 | 0 | 0.0 | 0.0 | 0.00 | 0.08 | 0.00 | 100 | 1012.4 |
| 20260906045142 | 21 | 0 | 0.0 | 0.0 | 0.00 | 0.08 | 0.00 | 100 | 1012.4 |
| 20260906044642 | 21 | 0 | 0.0 | 0.0 | 0.00 | 0.08 | 0.00 | 100 | 1012.4 |
| 20260906044142 | 21 | 0 | 0.0 | 0.0 | 0.00 | 0.08 | 0.00 | 100 | 1012.5 |
| 20260906043913 | 21 | 0 | 0.0 | 0.0 | 0.00 | 0.08 | 0.00 | 100 | 1012.5 |
| 20260906043142 | 21 | 0 | 0.0 | 0.0 | 0.00 | 0.08 | 0.00 | 100 | 1012.4 |
| 20260906042642 | 21 | 0 | 0.0 | 0.0 | 0.00 | 0.08 | 0.00 | 100 | 1012.4 |
| 20260906042142 | 21 | 0 | 0.0 | 0.0 | 0.00 | 0.08 | 0.00 | 100 | 1012.4 |
| 20260906041859 | 21 | 0 | 0.0 | 0.0 | 0.00 | 0.08 | 0.00 | 100 | 1012.6 |
| 20260906041128 | 21 | 0 | 0.0 | 0.0 | 0.00 | 0.08 | 0.00 | 100 | 1012.6 |
| 20260906040627 | 21 | 0 | 0.0 | 0.0 | 0.00 | 0.08 | 0.00 | 100 | 1012.5 |
| 20260906040129 | 21 | 0 | 0.0 | 0.0 | 0.00 | 0.08 | 0.00 | 100 | 1012.5 |
| 20260906035628 | 21 | 0 | 0.0 | 3.2 | 0.00 | 0.08 | 0.08 | 100 | 1012.4 |
| 20260906035127 | 21 | 0 | 0.0 | 3.2 | 0.00 | 0.08 | 0.08 | 100 | 1012.4 |
| 20260906034627 | 21 | 0 | 0.0 | 0.0 | 0.00 | 0.08 | 0.08 | 100 | 1012.4 |
| 20260906034357 | 21 | 0 | 0.0 | 0.0 | 0.00 | 0.08 | 0.08 | 100 | 1012.4 |
| 20260906033627 | 21 | 0 | 0.0 | 0.0 | 0.00 | 0.08 | 0.08 | 100 | 1012.4 |
| 20260906033127 | 21 | 0 | 0.0 | 0.0 | 0.00 | 0.08 | 0.08 | 100 | 1012.5 |
| 20260906032626 | 21 | 0 | 0.0 | 0.0 | 0.00 | 0.08 | 0.08 | 100 | 1012.5 |
| 20260906032127 | 21 | 0 | 0.0 | 0.0 | 0.00 | 0.08 | 0.08 | 100 | 1012.5 |
| 20260906031858 | 21 | 0 | 0.0 | 0.0 | 0.00 | 0.08 | 0.08 | 100 | 1012.4 |
| 20260906031127 | 21 | 0 | 0.0 | 0.0 | 0.00 | 0.08 | 0.08 | 100 | 1012.4 |
| 20260906030626 | 21 | 0 | 0.0 | 0.0 | 0.00 | 0.08 | 0.08 | 100 | 1012.3 |
| 20260906030357 | 21 | 0 | 0.0 | 0.0 | 0.00 | 0.08 | 0.08 | 100 | 1012.3 |
| 20260906025627 | 21 | 0 | 0.0 | 3.2 | 0.00 | 0.08 | 0.08 | 100 | 1012.2 |
| 20260906025358 | 21 | 0 | 0.0 | 3.2 | 0.00 | 0.08 | 0.08 | 100 | 1012.1 |
| 20260906024627 | 21 | 0 | 0.0 | 0.0 | 0.00 | 0.08 | 0.08 | 100 | 1012.2 |
| 20260906024126 | 21 | 0 | 0.0 | 0.0 | 0.00 | 0.08 | 0.08 | 100 | 1012.2 |
| 20260906023627 | 21 | 0 | 0.0 | 0.0 | 0.00 | 0.08 | 0.08 | 100 | 1012.2 |
| 20260906023357 | 21 | 0 | 0.0 | 0.0 | 0.00 | 0.08 | 0.08 | 100 | 1012.2 |
| 20260906022626 | 21 | 0 | 0.0 | 0.0 | 0.00 | 0.08 | 0.08 | 100 | 1012.1 |
| 20260906022127 | 21 | 0 | 0.0 | 0.0 | 0.00 | 0.08 | 0.08 | 100 | 1012.2 |
| 20260906021858 | 21 | 0 | 0.0 | 0.0 | 0.00 | 0.08 | 0.08 | 100 | 1012.1 |
| 20260906021127 | 21 | 0 | 0.0 | 0.0 | 0.00 | 0.08 | 0.08 | 100 | 1012.1 |
| 20260906020628 | 21 | 0 | 0.0 | 0.0 | 0.00 | 0.08 | 0.08 | 100 | 1012.1 |
| 20260906020127 | 21 | 0 | 0.0 | 0.0 | 0.00 | 0.08 | 0.08 | 100 | 1011.9 |
| 20260906015859 | 21 | 0 | 0.0 | 0.0 | 0.00 | 0.08 | 0.08 | 100 | 1012.0 |
| 20260906015129 | 21 | 0 | 0.0 | 0.0 | 0.00 | 0.08 | 0.08 | 100 | 1012.0 |
| 20260906014858 | 21 | 0 | 0.0 | 0.0 | 0.00 | 0.08 | 0.08 | 100 | 1011.9 |
| 20260906014737 | 22 | 0 | 0.0 | 0.0 | 0.00 | 0.08 | 0.08 | 100 | 1012.0 |
| 20260906013855 | 22 | 0 | 0.0 | 0.0 | 0.00 | 0.08 | 0.08 | 100 | 1011.9 |
| 20260906013124 | 22 | 0 | 0.0 | 0.0 | 0.00 | 0.08 | 0.08 | 100 | 1011.9 |
| 20260906012624 | 22 | 0 | 0.0 | 0.0 | 0.00 | 0.08 | 0.08 | 100 | 1011.9 |
| 20260906012124 | 22 | 0 | 0.0 | 0.0 | 0.00 | 0.08 | 0.08 | 100 | 1011.7 |
| 20260906011624 | 22 | 0 | 0.0 | 0.0 | 0.00 | 0.08 | 0.08 | 100 | 1011.8 |
| 20260906011125 | 22 | 0 | 0.0 | 0.0 | 0.00 | 0.08 | 0.08 | 100 | 1011.8 |
| 20260906010625 | 22 | 0 | 0.0 | 0.0 | 0.00 | 0.08 | 0.08 | 100 | 1011.7 |
| 20260906010355 | 22 | 0 | 0.0 | 0.0 | 0.00 | 0.08 | 0.08 | 100 | 1011.7 |
| 20260906005625 | 22 | 0 | 0.0 | 0.0 | 0.00 | 0.08 | 0.08 | 100 | 1011.7 |
| 20260906005125 | 22 | 0 | 0.0 | 0.0 | 0.00 | 0.08 | 0.08 | 100 | 1011.7 |
| 20260906004622 | 22 | 0 | 0.0 | 0.0 | 0.00 | 0.08 | 0.08 | 100 | 1011.6 |
| 20260906004122 | 22 | 0 | 0.0 | 0.0 | 0.00 | 0.08 | 0.08 | 100 | 1011.5 |
| 20260906003854 | 22 | 0 | 0.0 | 0.0 | 0.00 | 0.08 | 0.08 | 100 | 1011.5 |
| 20260906003119 | 23 | 0 | 0.0 | 0.0 | 0.00 | 0.08 | 0.08 | 99 | 1011.6 |
| 20260906002619 | 23 | 0 | 0.0 | 0.0 | 0.00 | 0.08 | 0.08 | 99 | 1011.5 |
| 20260906002120 | 23 | 0 | 0.0 | 0.0 | 0.00 | 0.08 | 0.08 | 99 | 1011.6 |
| 20260906001625 | 23 | 0 | 0.0 | 0.0 | 0.00 | 0.08 | 0.08 | 98 | 1011.4 |
| 20260906001619 | 23 | 0 | 0.0 | 0.0 | 0.00 | 0.08 | 0.08 | 98 | 1011.5 |
| 20260906000851 | 23 | 0 | 0.0 | 0.0 | 0.00 | 0.08 | 0.08 | 98 | 1011.3 |
| 20260906000355 | 24 | 0 | 0.0 | 0.0 | 0.00 | 0.08 | 0.08 | 98 | 1011.3 |
| 20260905235620 | 24 | 0 | 0.0 | 0.0 | 0.00 | 0.08 | 0.08 | 97 | 1011.2 |
| 20260905235120 | 24 | 0 | 0.0 | 0.0 | 0.00 | 0.08 | 0.08 | 97 | 1011.2 |
| 20260905234620 | 25 | 0 | 0.0 | 0.0 | 0.00 | 0.08 | 0.08 | 96 | 1011.1 |
| 20260905234121 | 25 | 0 | 0.0 | 0.0 | 0.00 | 0.08 | 0.08 | 95 | 1011.0 |
| 20260905233621 | 25 | 0 | 0.0 | 0.0 | 0.00 | 0.08 | 0.08 | 94 | 1010.9 |
| 20260905233120 | 25 | 0 | 0.0 | 0.0 | 0.00 | 0.08 | 0.08 | 94 | 1010.8 |
| 20260905232617 | 25 | 0 | 0.0 | 0.0 | 0.00 | 0.08 | 0.08 | 93 | 1010.8 |
| 20260905232117 | 25 | 0 | 0.0 | 3.2 | 0.00 | 0.08 | 0.08 | 93 | 1010.8 |
| 20260905231618 | 25 | 0 | 1.6 | 6.4 | 0.00 | 0.08 | 0.08 | 92 | 1010.9 |
| 20260905231118 | 25 | 0 | 0.0 | 6.4 | 0.00 | 0.08 | 0.08 | 92 | 1010.9 |
| 20260905230618 | 25 | 0 | 0.0 | 4.8 | 0.00 | 0.08 | 0.08 | 94 | 1010.9 |
| 20260905230118 | 25 | 0 | 0.0 | 4.8 | 0.00 | 0.08 | 0.08 | 94 | 1010.9 |
| 20260905225618 | 25 | 0 | 0.0 | 3.2 | 0.00 | 0.08 | 0.08 | 94 | 1010.7 |
| 20260905225118 | 25 | 0 | 0.0 | 3.2 | 0.00 | 0.08 | 0.08 | 95 | 1010.6 |
| 20260905224849 | 25 | 310 | 0.0 | 3.2 | 0.00 | 0.08 | 0.08 | 94 | 1010.6 |
| 20260905224118 | 25 | 320 | 0.0 | 3.2 | 0.00 | 0.08 | 0.08 | 94 | 1010.6 |
| 20260905223618 | 25 | 0 | 0.0 | 3.2 | 0.00 | 0.08 | 0.08 | 94 | 1010.7 |
| 20260905223119 | 26 | 302 | 0.0 | 3.2 | 0.00 | 0.08 | 0.08 | 93 | 1010.6 |
| 20260905222849 | 26 | 0 | 0.0 | 0.0 | 0.00 | 0.08 | 0.08 | 92 | 1010.6 |
| 20260905222116 | 26 | 0 | 0.0 | 0.0 | 0.00 | 0.08 | 0.08 | 92 | 1010.7 |
| 20260905221616 | 26 | 0 | 0.0 | 3.2 | 0.00 | 0.08 | 0.08 | 91 | 1010.8 |
| 20260905221117 | 26 | 0 | 0.0 | 3.2 | 0.00 | 0.08 | 0.08 | 91 | 1010.9 |
| 20260905220616 | 25 | 315 | 0.0 | 3.2 | 0.00 | 0.08 | 0.08 | 91 | 1010.9 |
| 20260905220117 | 25 | 0 | 0.0 | 0.0 | 0.00 | 0.08 | 0.08 | 92 | 1011.1 |
| 20260905215616 | 25 | 0 | 0.0 | 0.0 | 0.00 | 0.08 | 0.08 | 92 | 1011.1 |
| 20260905215117 | 25 | 0 | 0.0 | 0.0 | 0.00 | 0.08 | 0.08 | 91 | 1011.0 |
| 20260905214616 | 25 | 0 | 0.0 | 3.2 | 0.00 | 0.08 | 0.08 | 92 | 1011.0 |
| 20260905214117 | 25 | 0 | 0.0 | 3.2 | 0.00 | 0.08 | 0.08 | 91 | 1011.1 |
| 20260905213616 | 25 | 0 | 0.0 | 0.0 | 0.00 | 0.08 | 0.08 | 93 | 1011.2 |
| 20260905213118 | 25 | 0 | 0.0 | 0.0 | 0.00 | 0.08 | 0.08 | 93 | 1011.3 |
| 20260905212617 | 25 | 0 | 0.0 | 0.0 | 0.00 | 0.08 | 0.08 | 93 | 1011.3 |
| 20260905212118 | 25 | 0 | 0.0 | 0.0 | 0.00 | 0.08 | 0.08 | 94 | 1011.3 |
| 20260905211613 | 25 | 0 | 0.0 | 3.2 | 0.00 | 0.08 | 0.08 | 94 | 1011.5 |
| 20260905211115 | 25 | 0 | 0.0 | 4.8 | 0.00 | 0.08 | 0.08 | 93 | 1011.6 |
| 20260905210614 | 24 | 309 | 0.0 | 4.8 | 0.00 | 0.08 | 0.08 | 93 | 1011.7 |
| 20260905210115 | 24 | 0 | 0.0 | 0.0 | 0.00 | 0.08 | 0.08 | 95 | 1011.6 |
| 20260905205614 | 24 | 0 | 0.0 | 0.0 | 0.00 | 0.08 | 0.08 | 96 | 1011.5 |
| 20260905205346 | 24 | 0 | 0.0 | 0.0 | 0.00 | 0.08 | 0.08 | 97 | 1011.6 |
| 20260905204614 | 23 | 0 | 0.0 | 3.2 | 0.00 | 0.08 | 0.08 | 98 | 1011.6 |
| 20260905204115 | 23 | 0 | 0.0 | 3.2 | 0.00 | 0.08 | 0.08 | 98 | 1011.4 |
| 20260905203845 | 23 | 0 | 0.0 | 3.2 | 0.00 | 0.08 | 0.08 | 98 | 1011.5 |
| 20260905203346 | 23 | 0 | 0.0 | 4.8 | 0.00 | 0.08 | 0.08 | 100 | 1011.5 |
| 20260905203223 | 22 | 0 | 1.6 | 8.0 | 0.00 | 0.08 | 0.08 | 100 | 1011.5 |
| 20260905202116 | 22 | 346 | 1.6 | 8.0 | 0.00 | 0.08 | 0.08 | 100 | 1011.5 |
| 20260905201612 | 22 | 330 | 0.0 | 4.8 | 0.00 | 0.08 | 0.08 | 100 | 1011.4 |
| 20260905201112 | 22 | 0 | 0.0 | 4.8 | 0.00 | 0.08 | 0.08 | 100 | 1011.4 |
| 20260905200611 | 22 | 0 | 1.6 | 4.8 | 0.00 | 0.08 | 0.08 | 100 | 1011.3 |
| 20260905200112 | 22 | 314 | 1.6 | 4.8 | 0.00 | 0.08 | 0.08 | 100 | 1011.2 |
| 20260905195612 | 22 | 17 | 1.6 | 4.8 | 0.00 | 0.08 | 0.08 | 100 | 1011.4 |
| 20260905195112 | 22 | 325 | 0.0 | 3.2 | 0.03 | 0.08 | 0.08 | 100 | 1011.4 |
| 20260905194842 | 22 | 0 | 1.6 | 6.4 | 0.08 | 0.08 | 0.08 | 100 | 1011.4 |
| 20260905194112 | 22 | 317 | 1.6 | 6.4 | 0.08 | 0.08 | 0.08 | 100 | 1011.5 |
| 20260905193841 | 22 | 288 | 1.6 | 6.4 | 0.08 | 0.08 | 0.08 | 99 | 1011.6 |
| 20260905193108 | 22 | 312 | 0.0 | 6.4 | 0.08 | 0.08 | 0.08 | 99 | 1011.5 |
| 20260905192606 | 22 | 0 | 1.6 | 6.4 | 0.08 | 0.08 | 0.08 | 98 | 1011.8 |
| 20260905192111 | 23 | 0 | 0.0 | 6.4 | 0.08 | 0.08 | 0.08 | 97 | 1011.8 |
| 20260905192105 | 22 | 290 | 1.6 | 6.4 | 0.08 | 0.08 | 0.08 | 98 | 1011.9 |
| 20260905191104 | 23 | 0 | 1.6 | 6.4 | 0.08 | 0.08 | 0.08 | 96 | 1012.1 |
| 20260905190601 | 23 | 211 | 1.6 | 8.0 | 0.08 | 0.08 | 0.08 | 95 | 1012.6 |
| 20260905185601 | 25 | 277 | 8.0 | 22.5 | 0.08 | 0.08 | 0.08 | 89 | 1012.8 |
| 20260905185101 | 27 | 304 | 11.3 | 22.5 | 0.05 | 0.05 | 0.05 | 83 | 1012.8 |
| 20260905184833 | 29 | 273 | 14.5 | 41.8 | 0.00 | 0.00 | 0.00 | 73 | 1012.0 |
| 20260905184059 | 31 | 114 | 14.5 | 41.8 | 0.00 | 0.00 | 0.00 | 63 | 1011.9 |
| 20260905183559 | 33 | 44 | 9.7 | 29.0 | 0.00 | 0.00 | 0.00 | 55 | 1011.7 |
| 20260905183100 | 35 | 352 | 4.8 | 17.7 | 0.00 | 0.00 | 0.00 | 58 | 1011.3 |
| 20260905182558 | 35 | 0 | 3.2 | 12.9 | 0.00 | 0.00 | 0.00 | 58 | 1010.4 |
| 20260905182058 | 35 | 339 | 3.2 | 12.9 | 0.00 | 0.00 | 0.00 | 56 | 1010.4 |
| 20260905181552 | 36 | 9 | 3.2 | 11.3 | 0.00 | 0.00 | 0.00 | 54 | 1010.4 |
| 20260905181054 | 36 | 290 | 4.8 | 14.5 | 0.00 | 0.00 | 0.00 | 55 | 1010.7 |
| 20260905180549 | 36 | 343 | 3.2 | 14.5 | 0.00 | 0.00 | 0.00 | 52 | 1010.8 |
| 20260905180051 | 36 | 207 | 3.2 | 11.3 | 0.00 | 0.00 | 0.00 | 54 | 1010.9 |
| 20260905175551 | 35 | 352 | 3.2 | 9.7 | 0.00 | 0.00 | 0.00 | 54 | 1010.9 |
| 20260905175051 | 35 | 298 | 3.2 | 14.5 | 0.00 | 0.00 | 0.00 | 57 | 1011.0 |
| 20260905174550 | 35 | 328 | 3.2 | 14.5 | 0.00 | 0.00 | 0.00 | 56 | 1011.0 |
| 20260905174051 | 35 | 0 | 3.2 | 9.7 | 0.00 | 0.00 | 0.00 | 57 | 1011.2 |
| 20260905173550 | 36 | 37 | 3.2 | 11.3 | 0.00 | 0.00 | 0.00 | 56 | 1011.4 |
| 20260905173057 | 36 | 2 | 3.2 | 11.3 | 0.00 | 0.00 | 0.00 | 55 | 1011.5 |
| 20260905173051 | 36 | 0 | 4.8 | 11.3 | 0.00 | 0.00 | 0.00 | 57 | 1011.4 |
| 20260905172322 | 36 | 235 | 3.2 | 12.9 | 0.00 | 0.00 | 0.00 | 55 | 1011.6 |
| 20260905171550 | 36 | 0 | 3.2 | 12.9 | 0.00 | 0.00 | 0.00 | 54 | 1011.6 |
| 20260905171050 | 36 | 0 | 1.6 | 6.4 | 0.00 | 0.00 | 0.00 | 57 | 1011.8 |
| 20260905170550 | 35 | 267 | 3.2 | 9.7 | 0.00 | 0.00 | 0.00 | 56 | 1011.9 |
| 20260905170050 | 35 | 0 | 3.2 | 9.7 | 0.00 | 0.00 | 0.00 | 59 | 1011.9 |
| 20260905165548 | 35 | 154 | 3.2 | 12.9 | 0.00 | 0.00 | 0.00 | 59 | 1011.9 |
| 20260905165048 | 35 | 0 | 3.2 | 12.9 | 0.00 | 0.00 | 0.00 | 59 | 1012.0 |
| 20260905164548 | 35 | 339 | 3.2 | 12.9 | 0.00 | 0.00 | 0.00 | 60 | 1012.1 |
| 20260905164046 | 35 | 50 | 4.8 | 11.3 | 0.00 | 0.00 | 0.00 | 59 | 1012.2 |
| 20260905163550 | 35 | 32 | 3.2 | 11.3 | 0.00 | 0.00 | 0.00 | 61 | 1012.2 |
| 20260905163545 | 35 | 16 | 4.8 | 11.3 | 0.00 | 0.00 | 0.00 | 60 | 1012.3 |
| 20260905162545 | 35 | 135 | 4.8 | 14.5 | 0.00 | 0.00 | 0.00 | 61 | 1012.4 |
| 20260905162045 | 35 | 352 | 3.2 | 14.5 | 0.00 | 0.00 | 0.00 | 61 | 1012.4 |
| 20260905161546 | 35 | 329 | 3.2 | 12.9 | 0.00 | 0.00 | 0.00 | 62 | 1012.5 |
| 20260905161315 | 35 | 159 | 3.2 | 8.0 | 0.00 | 0.00 | 0.00 | 62 | 1012.6 |
| 20260905160545 | 34 | 0 | 3.2 | 9.7 | 0.00 | 0.00 | 0.00 | 61 | 1012.7 |
| 20260905160043 | 34 | 0 | 3.2 | 12.9 | 0.00 | 0.00 | 0.00 | 61 | 1012.6 |
| 20260905155543 | 34 | 285 | 3.2 | 12.9 | 0.00 | 0.00 | 0.00 | 63 | 1012.6 |
| 20260905155313 | 34 | 236 | 3.2 | 9.7 | 0.00 | 0.00 | 0.00 | 61 | 1012.6 |
| 20260905154541 | 34 | 213 | 3.2 | 14.5 | 0.00 | 0.00 | 0.00 | 63 | 1012.6 |
| 20260905154041 | 33 | 238 | 3.2 | 14.5 | 0.00 | 0.00 | 0.00 | 64 | 1012.7 |
| 20260905153542 | 33 | 19 | 3.2 | 11.3 | 0.00 | 0.00 | 0.00 | 63 | 1012.8 |
| 20260905153042 | 33 | 108 | 3.2 | 9.7 | 0.00 | 0.00 | 0.00 | 65 | 1012.8 |
| 20260905152541 | 33 | 81 | 3.2 | 9.7 | 0.00 | 0.00 | 0.00 | 65 | 1012.9 |
| 20260905152042 | 33 | 340 | 1.6 | 9.7 | 0.00 | 0.00 | 0.00 | 64 | 1012.9 |
| 20260905151540 | 33 | 0 | 1.6 | 6.4 | 0.00 | 0.00 | 0.00 | 66 | 1012.9 |
| 20260905151040 | 33 | 101 | 1.6 | 8.0 | 0.00 | 0.00 | 0.00 | 66 | 1013.2 |
| 20260905150539 | 33 | 60 | 3.2 | 12.9 | 0.00 | 0.00 | 0.00 | 70 | 1013.2 |
| 20260905150041 | 33 | 14 | 3.2 | 12.9 | 0.00 | 0.00 | 0.00 | 67 | 1013.2 |
| 20260905145811 | 32 | 217 | 1.6 | 6.4 | 0.00 | 0.00 | 0.00 | 68 | 1013.3 |
| 20260905145038 | 32 | 0 | 1.6 | 6.4 | 0.00 | 0.00 | 0.00 | 69 | 1013.3 |
| 20260905144539 | 32 | 0 | 1.6 | 6.4 | 0.00 | 0.00 | 0.00 | 69 | 1013.3 |
| 20260905144038 | 32 | 0 | 1.6 | 6.4 | 0.00 | 0.00 | 0.00 | 71 | 1013.3 |
| 20260905143538 | 32 | 0 | 1.6 | 6.4 | 0.00 | 0.00 | 0.00 | 71 | 1013.3 |
| 20260905143037 | 31 | 0 | 3.2 | 9.7 | 0.00 | 0.00 | 0.00 | 73 | 1013.2 |
| 20260905142538 | 31 | 0 | 1.6 | 9.7 | 0.00 | 0.00 | 0.00 | 72 | 1013.3 |
| 20260905142038 | 31 | 60 | 0.0 | 6.4 | 0.00 | 0.00 | 0.00 | 73 | 1013.2 |
| 20260905141538 | 31 | 0 | 1.6 | 6.4 | 0.00 | 0.00 | 0.00 | 75 | 1013.2 |
| 20260905141038 | 30 | 231 | 1.6 | 6.4 | 0.00 | 0.00 | 0.00 | 75 | 1013.3 |
| 20260905140538 | 30 | 26 | 0.0 | 6.4 | 0.00 | 0.00 | 0.00 | 75 | 1013.3 |
| 20260905140038 | 30 | 0 | 1.6 | 6.4 | 0.00 | 0.00 | 0.00 | 76 | 1013.4 |
| 20260905135538 | 30 | 0 | 1.6 | 6.4 | 0.00 | 0.00 | 0.00 | 76 | 1013.5 |
| 20260905135307 | 30 | 164 | 1.6 | 6.4 | 0.00 | 0.00 | 0.00 | 78 | 1013.6 |
| 20260905134536 | 30 | 240 | 1.6 | 6.4 | 0.00 | 0.00 | 0.00 | 76 | 1013.7 |
| 20260905134035 | 29 | 0 | 0.0 | 6.4 | 0.00 | 0.00 | 0.00 | 78 | 1013.7 |
| 20260905133532 | 29 | 0 | 0.0 | 6.4 | 0.00 | 0.00 | 0.00 | 78 | 1013.7 |
| 20260905133032 | 29 | 224 | 0.0 | 6.4 | 0.00 | 0.00 | 0.00 | 80 | 1013.8 |
| 20260905132533 | 29 | 0 | 0.0 | 6.4 | 0.00 | 0.00 | 0.00 | 80 | 1013.8 |
| 20260905132032 | 28 | 0 | 1.6 | 4.8 | 0.00 | 0.00 | 0.00 | 80 | 1013.9 |
| 20260905131533 | 28 | 0 | 0.0 | 4.8 | 0.00 | 0.00 | 0.00 | 80 | 1013.9 |
| 20260905131033 | 28 | 0 | 0.0 | 1.6 | 0.00 | 0.00 | 0.00 | 81 | 1013.9 |
| 20260905130533 | 28 | 242 | 0.0 | 1.6 | 0.00 | 0.00 | 0.00 | 84 | 1014.0 |
| 20260905130033 | 27 | 0 | 0.0 | 1.6 | 0.00 | 0.00 | 0.00 | 86 | 1014.0 |
| 20260905125533 | 27 | 0 | 0.0 | 3.2 | 0.00 | 0.00 | 0.00 | 88 | 1014.0 |
| 20260905125033 | 26 | 0 | 0.0 | 3.2 | 0.00 | 0.00 | 0.00 | 90 | 1014.1 |
| 20260905124531 | 26 | 229 | 0.0 | 3.2 | 0.00 | 0.00 | 0.00 | 94 | 1014.1 |
| 20260905124030 | 25 | 0 | 0.0 | 0.0 | 0.00 | 0.00 | 0.00 | 98 | 1014.0 |
| 20260905123758 | 25 | 0 | 0.0 | 0.0 | 0.00 | 0.00 | 0.00 | 100 | 1014.0 |
| 20260905123027 | 23 | 0 | 0.0 | 0.0 | 0.00 | 0.00 | 0.00 | 100 | 1014.0 |
| 20260905122759 | 23 | 0 | 0.0 | 0.0 | 0.00 | 0.00 | 0.00 | 100 | 1014.1 |
| 20260905122027 | 22 | 0 | 0.0 | 0.0 | 0.00 | 0.00 | 0.00 | 100 | 1014.1 |
| 20260905121528 | 22 | 0 | 0.0 | 0.0 | 0.00 | 0.00 | 0.00 | 100 | 1014.0 |
| 20260905121027 | 22 | 0 | 0.0 | 0.0 | 0.00 | 0.00 | 0.00 | 100 | 1014.0 |
| 20260905120528 | 22 | 0 | 0.0 | 0.0 | 0.00 | 0.00 | 0.00 | 100 | 1014.0 |
| 20260905120259 | 22 | 0 | 0.0 | 0.0 | 0.00 | 0.00 | 0.00 | 100 | 1013.9 |
| 20260905115528 | 21 | 0 | 0.0 | 0.0 | 0.00 | 0.00 | 0.00 | 100 | 1013.9 |
| 20260905115028 | 21 | 0 | 0.0 | 0.0 | 0.00 | 0.00 | 0.00 | 100 | 1013.9 |
| 20260905114528 | 21 | 0 | 0.0 | 0.0 | 0.00 | 0.00 | 0.00 | 100 | 1013.8 |
| 20260905114028 | 21 | 0 | 0.0 | 0.0 | 0.00 | 0.00 | 0.00 | 100 | 1013.8 |
| 20260905113528 | 21 | 0 | 0.0 | 0.0 | 0.00 | 0.00 | 0.00 | 100 | 1013.6 |
| 20260905113013 | 21 | 0 | 0.0 | 0.0 | 0.00 | 0.00 | 0.00 | 100 | 1013.6 |
| 20260905112513 | 21 | 0 | 0.0 | 0.0 | 0.00 | 0.00 | 0.00 | 100 | 1013.4 |
| 20260905112245 | 21 | 0 | 0.0 | 0.0 | 0.00 | 0.00 | 0.00 | 100 | 1013.3 |
| 20260905111513 | 21 | 0 | 0.0 | 0.0 | 0.00 | 0.00 | 0.00 | 100 | 1013.3 |
| 20260905111019 | 21 | 0 | 0.0 | 0.0 | 0.00 | 0.00 | 0.00 | 100 | 1013.2 |
| 20260905111013 | 21 | 0 | 0.0 | 0.0 | 0.00 | 0.00 | 0.00 | 100 | 1013.2 |
| 20260905110013 | 21 | 0 | 0.0 | 3.2 | 0.00 | 0.00 | 0.00 | 100 | 1013.1 |
| 20260905105513 | 21 | 0 | 1.6 | 4.8 | 0.00 | 0.00 | 0.00 | 100 | 1013.1 |
| 20260905105014 | 21 | 0 | 1.6 | 4.8 | 0.00 | 0.00 | 0.00 | 100 | 1013.1 |
| 20260905104514 | 21 | 321 | 0.0 | 4.8 | 0.00 | 0.00 | 0.00 | 100 | 1013.1 |
| 20260905104014 | 21 | 0 | 0.0 | 0.0 | 0.00 | 0.00 | 0.00 | 100 | 1013.1 |
| 20260905103515 | 21 | 0 | 0.0 | 1.6 | 0.00 | 0.00 | 0.00 | 100 | 1012.9 |
| 20260905103015 | 21 | 309 | 0.0 | 1.6 | 0.00 | 0.00 | 0.00 | 100 | 1012.9 |
| 20260905102731 | 21 | 0 | 0.0 | 0.0 | 0.00 | 0.00 | 0.00 | 100 | 1012.9 |
| 20260905102231 | 21 | 0 | 0.0 | 0.0 | 0.00 | 0.00 | 0.00 | 100 | 1012.9 |
| 20260905101500 | 21 | 0 | 0.0 | 0.0 | 0.00 | 0.00 | 0.00 | 100 | 1012.9 |
| 20260905101232 | 21 | 0 | 0.0 | 0.0 | 0.00 | 0.00 | 0.00 | 100 | 1012.8 |
| 20260905100458 | 22 | 0 | 0.0 | 0.0 | 0.00 | 0.00 | 0.00 | 100 | 1012.8 |
| 20260905095958 | 22 | 0 | 0.0 | 0.0 | 0.00 | 0.00 | 0.00 | 100 | 1012.7 |